www.pogodaiklimat.ru

Погода и климат >> Архив погоды >> Корея >> Кунсан


ПОГОДА в Кунсане

  • Прогноз погоды в Кунсане
  • Монитор погоды в Кунсане

АРХИВ ПОГОДЫ в Кунсане

Время (UTC), дата Ветер
(напр.,м/с)
 
Видим.   Явления Облачность Т
(С)
Тd
(С)
f
(%)
Тe
(С)
Тes
(С)
Комфортность P
(гПа)
Po
(гПа)
Тmin
(С)
Tmax
(С)
R
(мм)
R24
(мм)
S
(см)
03 12.08 ЮВ 3 н/о 10/3 600 м
[]
+27.9 +26.2 90 +42 +48 опасность
перегрева
1000.0 997.4
06 12.08 ЮВ 3 н/о ?/? +28.0 +27.1 95 +44 +48 опасность
перегрева
999.9 997.3 14
09 12.08 Ю 2 н/о 10/5 1000 м
[]
+29.0 +26.2 85 +44 +44 опасность
перегрева
999.8 997.2
12 12.08 В 3 н/о 8/8 1500 м
[]
+27.6 +25.2 87 +40 +40 очень
душно
1001.4 998.8 +30.3 14
15 12.08 н/о н/о +27.8 +24.0 80 +39 +39 очень
душно
1001.7 999.1
18 12.08 ЮВ 2 н/о 6/0
[]
+26.4 +23.6 85 +36 +36 очень
душно
1001.6 999.0
21 12.08 н/о н/о +24.7 +23.6 94 +34 +34 очень
душно
1002.5 999.9
00 13.08 ЮВ 3 н/о 6/6 1000 м
[]
+29.3 +24.1 74 +41 +44 опасность
перегрева
1002.9 1000.3 +24.6 0.0
03 13.08 н/о
06 13.08 З 4 н/о 6/0
[]
+32.5 +25.8 68 +48 +54 опасность
перегрева
1001.5 998.9
09 13.08 СЗ 4 н/о 1/1 1500 м
[]
+29.9 +25.4 77 +44 +45 опасность
перегрева
1001.4 998.8
12 13.08 З 2 н/о 6/6 1000 м
[]
+27.9 +25.5 87 +41 +41 опасность
перегрева
1002.8 1000.2 +33.7
15 13.08 н/о н/о +27.1 +25.6 92 +40 +40 очень
душно
1002.9 1000.3
18 13.08 н/о 4/4 600 м
[]
+26.2 +25.3 95 1002.0 999.4
21 13.08 штиль 0 н/о 3/1 200 м
[]
+25.9 +25.5 98 +38 +38 очень
душно
1001.3 998.7
00 14.08 С 4 н/о 6/0
[]
+28.9 +23.7 74 +40 +44 очень
душно
1000.9 998.3 +25.9 0.0
03 14.08 С 2 н/о 6/0
[]
+32.4 +24.9 65 +46 +59 опасность
перегрева
999.5 996.9
06 14.08 СЗ 4 н/о 5/5 1000 м
[]
+31.4 +25.7 72 +46 +51 опасность
перегрева
998.2 995.6
09 14.08 н/о 5/3
[]
+32.8 +24.8 63 996.5 994.0
12 14.08 СВ 3 н/о 8/0
[]
+30.1 +23.7 69 +41 +41 опасность
перегрева
996.9 994.3 +33.3
15 14.08 СВ 4 н/о 8/3 2000 м
[]
+29.6 +22.8 67 +39 +39 очень
душно
995.8 993.2
18 14.08 СВ 1 н/о ?/? +28.2 +22.6 72 +37 +37 очень
душно
994.6 992.0
21 14.08 СВ 1 н/о 10/4 2000 м
[]
+26.5 +23.1 82 +36 +36 очень
душно
994.0 991.4
00 15.08 С 2 н/о ?/? +26.0 +23.6 87 +35 +35 очень
душно
993.8 991.2 +25.6 0.0
03 15.08 С 1 н/о 10/3 300 м
[]
+26.1 +24.1 89 +36 +44 очень
душно
992.7 990.1
06 15.08 С 8 н/о ?/? +28.0 +23.7 77 +38 +38 очень
душно
991.5 988.9
09 15.08 н/о н/о +26.2 +23.0 83 +35 +36 очень
душно
991.0 988.4
12 15.08 СЗ 5 н/о 3/3 1000 м
[]
+25.9 +23.1 85 +35 +35 очень
душно
991.9 989.3 +29.6 0.2
15 15.08 СЗ 2 н/о 4/1 300 м
[]
+26.2 +24.0 88 +36 +36 очень
душно
992.4 989.8
18 15.08 СЗ 3 н/о 8/8 300 м
[]
+25.4 +23.9 91 +35 +35 очень
душно
992.9 990.3
21 15.08 штиль 0 н/о 10/4 600 м
[]
+23.8 +23.6 99 +32 +32 очень
душно
994.3 991.7
00 16.08 СЗ 9 н/о 9/9 300 м
[]
+26.7 +23.9 85 +37 +37 очень
душно
995.6 993.0 +23.8 9
03 16.08 З 5 н/о 6/5 600 м
[]
+28.8 +23.4 73 +39 +44 очень
душно
996.4 993.8
06 16.08 З 5 н/о 3/3 300 м
[]
+28.9 +24.2 76 +40 +45 очень
душно
996.9 994.3
09 16.08 СЗ 4 н/о ясно +27.5 +23.5 79 +37 +38 очень
душно
998.0 995.4
12 16.08 З 3 н/о 4/0
[]
+25.8 +22.4 82 +34 +34 очень
душно
1000.2 997.6 +29.1 0.0
15 16.08 ЮВ 2 н/о 3/1 600 м
[]
+24.2 +22.8 92 +32 +32 очень
душно
1001.4 998.8
18 16.08 ЮВ 2 н/о 3/3 600 м
[]
+23.4 +22.8 96 +33 +33 очень
душно
1001.6 999.0
21 16.08 н/о н/о +22.7 +22.5 99 +31 +31 очень
душно
1001.8 999.2
00 17.08 Ю 8 н/о 3/0
[]
+26.4 +22.8 81 +35 +36 очень
душно
1002.5 999.9 +22.6 0.0
03 17.08 ЮЗ 5 н/о 8/4 1000 м
[]
+28.2 +21.7 68 +36 +40 очень
душно
1002.5 999.9
06 17.08 ЮЗ 8 н/о 8/0
[]
+29.8 +23.0 67 +40 +41 очень
душно
1001.5 998.9
09 17.08 н/о н/о +27.1 +23.9 83 +37 +38 очень
душно
1001.7 999.1
12 17.08 С 5 н/о 8/8 1000 м
[]
+25.3 +21.3 79 +32 +32 очень
душно
1003.8 1001.2 +30.5 0.0
15 17.08 штиль 0 н/о 6/4 600 м
[]
+23.2 +21.6 91 +31 +31 очень
душно
1005.2 1002.6
18 17.08 штиль 0 н/о 5/0
[]
+21.5 +21.3 99 +27 +27 душно 1005.6 1002.9
21 17.08 штиль 0 н/о 8/0
[]
+20.9 +20.7 99 +26 +26 душно 1006.2 1003.5
00 18.08 ЮВ 2 н/о 8/0
[]
+22.5 +22.3 99 +30 +35 очень
душно
1007.9 1005.2 +20.4 0.0
03 18.08 СЗ 2 н/о 3/1 1000 м
[]
+28.0 +19.2 59 +34 +48 очень
душно
1007.5 1004.9
06 18.08 З 4 н/о 3/0
[]
+28.8 +17.9 52 +33 +41 очень
душно
1006.7 1004.1
09 18.08 СЗ 4 н/о 1/0
[]
+27.2 +20.7 68 +34 +35 очень
душно
1006.6 1004.0
12 18.08 штиль 0 н/о ясно +22.9 +19.8 83 +30 +30 очень
душно
1007.8 1005.1 +29.7
15 18.08 штиль 0 н/о ясно +21.3 +18.8 86 +26 +26 душно 1008.6 1005.9
18 18.08 СЗ 1 н/о 8/0
[]
+20.9 +20.0 95 +27 +27 душно 1009.1 1006.4
21 18.08 штиль 0 н/о 9//
[]
+20.8 +19.6 93 +25 +25 комфорт 1009.5 1006.8
00 19.08 н/о н/о +24.1 +19.5 75 +29 +31 душно 1009.7 1007.1

 

Местоположение метеостанции Кунсан (Корея): широта 36.00 долгота 126.76 высота над уровнем моря 31 м.

В архиве по умолчанию представлена погода в Кунсане за последнюю неделю. Архивные данные за месяц целиком и за предыдущие месяцы, начиная с января 2011 года, Вы можете получить, выбрав интересующий диапазон дат из раскрывающегося списка и нажав кнопку "Ввод!".


*Определитесь, кто Вы:
робот инопланетянин человек

Внимание! Время в таблицах - всемирное. Для получения местного времени необходимо прибавить поправку, которая равна 9 ч.

Смотрите также архив погоды в соседних городах и на ближайших метеорологических станциях:

Погода в Чонджу (Корея) (40 км)
Погода в Порёне (Корея) (41 км)
Погода в Чоныпе (Корея) (51 км)
Погода в Кочхане (Корея) (64 км)
Погода в Тэджоне (Корея) (68 км)
Погода в Хонсоне (Корея) (74 км)
Погода в Намвоне (Корея) (84 км)
Погода в Сосане (Корея) (89 км)
Погода в Чхонане (Корея) (92 км)
Погода в Кванджу (Корея) (93 км)

Пояснения к столбцам:

Ветер - указаны скорость ветра в м/с - средняя за 10 мин, порывы в срок и между сроками (в фигурных скобках) и направление, откуда дует ветер: С - северный, СВ - северо-восточный, В - восточный, ЮВ - юго-восточный, Ю - южный, ЮЗ - юго-западный, З - западный, СЗ - северо-западный.
Видимость - горизонтальная дальность видимости в метрах или километрах. При видимости от 1 до 10 км при отсутствии осадков обычно наблюдается дымка, при ухудшении видимости до 1 км и менее - туман. В сухую погоду видимость может ухудшаться дымом, пылью или мглою.
Явления - указаны атмосферные явления, наблюдавшиеся в срок или в последний час перед сроком; фигурными скобками обозначены явления, наблюдавшиеся между сроками (за 1-3 часа до срока); квадратными скобками обозначены град или гололедные отложения с указанием их диаметра в мм.
Облачность - указаны через наклонную черту общая и нижняя облачность в баллах и высота нижней границы облаков в метрах; квадратными скобками обозначены формы облаков: Ci - перистые, Cs - перисто-слоистые, Cc - перисто-кучевые, Ac - высококучевые, As - высокослоистые, Sc - слоисто-кучевые, Ns - слоисто-дождевые, Cu - кучевые, Cb - кучево-дождевые. Подробнее классификацию облаков см. в Атласе облаков (PDF).
T - Температура воздуха - температура, измеренная на высоте 2 м над землей.
Td - Температура точки росы - температура, при понижении до которой содержащийся в воздухе водяной пар достигнет насыщения.
f - Относительная влажность воздуха - влажноcть воздуха, измеренная на высоте 2 м над землей.
Te - Эффективная температура - температура, которую ощущает одетый по сезону человек в тени. Характеристика душности погоды. При расчете учитывается влияние влажности воздуха и скорости ветра на теплоощущения человека.
Tes - Эффективная температура на солнце - температура, которую ощущает человек, с поправкой на солнечный нагрев. Характеристика знойности погоды. Зависит от высоты солнца над горизонтом, облачности и скорости ветра. Ночью, в пасмурную погоду, а также при ветре 12 м/с и более поправка равна нулю.
P - Атмосферное давление - приведенное к уровню моря атмосферное давление.
Po - Атмосферное давление - измеренное на уровне метеостанции атмосферное давление.
Tmin - Минимальная температура - минимум температуры воздуха на высоте 2 м над землей.
Tmax - Максимальная температура - максимум температуры воздуха на высоте 2 м над землей.
R - Количество осадков - Количество выпавших осадков за период времени, мм. При наведении курсора мыши на число - период времени, за который выпало указанное количество осадков.
R24 - Количество осадков - Количество выпавших осадков за 24 часа, мм.
S - Снежный покров - Высота снежного покрова, см. При наведении курсора мыши на число - состояние снежного покрова и степень покрытия местности в баллах.